Weather in Berlin

United States     41°37′16″N   72°44′45″W
temp.,
°C
wind,
m/s
gust,
m/s
humid.,
%
clouds,
%
prec.,
mm/h
press.,
hPa
HPBL,
m
17 may, mon
mon1723:00+11wsw118139 0.0 102414
02:00+9wsw11886 0.0 102411
05:00+9w11895 0.0 102511
08:00+15nw1268100 0.0 1026238
11:00+21wnw12425 0.0 10251430
14:00+20ssw3447100 0.0 1024910
17:00+20s354976 0.0 1024683
20:00+16ssw3105465 0.0 1025399
18 may, tue
tue1823:00+13sw28577 0.0 1026185
02:00+11sw2267100 0.0 102519
05:00+12wsw1176100 0.0 102521
08:00+15wsw267055 0.0 1026297
11:00+21w244997 0.1 10251171
14:00+21sw245698 0.1 1023496
17:00+21wnw365497 0.0 1022869
20:00+16sw12787 0.1 102317
19 may, wed
wed1923:00+14w11825 0.1 102414
02:00+13nnw22865 0.1 102421
05:00+12nnw22908 0.0 102422
08:00+18nw26680 0.0 1025309
11:00+24n35385 0.0 10251649
14:00+27nnw353315 0.0 10242565
17:00+26n344325 0.0 10241683
20:00+19ssw11700 0.0 102511
20 may, thu
thu2023:00+17nw11730 0.0 102511
02:00+16n22740 0.0 102618
05:00+15nne11870 0.0 102714
08:00+18ene24720 0.0 1029344
11:00+23se22490 0.0 1029876
14:00+24s4339100 0.0 10291088
17:00+19s4748100 0.0 1028426
20:00+14sse2669100 0.0 1030222
21 may, fri
fri2123:00+11s239198 0.6 103061
02:00+11sse1394100 1.0 103070
05:00+11s1293100 0.2 103059
08:00+14s2483100 0.2 1030241
11:00+20sw2359100 0.0 1029640
14:00+19wsw3370100 0.1 1028634
17:00+17sw2397100 1.9 1026264
20:00+15ssw2599100 2.9 1026242